Thomson, GA

6:15 AM EDT on October 16, 2019 (GMT -0400)
Thomson-McDuffie County

Weather History for KHQU - August, 2019

Change the Weather History Date:

Monday, August 19, 2019

  Actual Average (KDNL) Record (KDNL)
Temperature  
Mean Temperature 82 °F -  
Max Temperature 91 °F 88 °F 97 °F (1999)
Min Temperature 72 °F 68 °F 19 °F (1996)
Cooling Degree Days 16    
Growing Degree Days 32 (Base 50)    
Moisture  
Dew Point 73 °F    
Average Humidity 83    
Maximum Humidity 98    
Minimum Humidity 49    
Precipitation  
Precipitation 0.00 in - - ()
Sea Level Pressure  
Sea Level Pressure 30.06 in    
Wind  
Wind Speed 2 mph (SSW)    
Max Wind Speed 15 mph    
Max Gust Speed 26 mph    
Visibility 10 miles    
Events Rain , Thunderstorm    
Averages and records for this station are not official NWS values.
T = Trace of Precipitation, MM = Missing Value Source: NWS Daily Summary

Daily Weather History Graph

Daily Weather History Graph

Search for Another Location

Airport or City:

Astronomy

Aug. 19, 2019 Rise Set
Actual Time 6:55 AM EDT 8:11 PM EDT
Civil Twilight 6:28 AM EDT 8:37 PM EDT
Nautical Twilight 5:57 AM EDT 9:08 PM EDT
Astronomical Twilight 5:25 AM EDT 9:41 PM EDT
Moon 10:43 PM EDT (8/19) 10:25 AM EDT (8/19)
Length of Visible Light 14h 08m
Length of Day
13h 16m
Waning Gibbous, 85% of the Moon is Illuminated
Aug 19
Waning Gibbous
Aug 23
Last Quarter
Aug 30
New
Sep 5
First Quarter
Sep 14
Full

Hourly Weather History & Observations

Time (EDT) Temp. Heat Index Dew Point Humidity Pressure Visibility Wind Dir Wind Speed Gust Speed Precip Events Conditions
12:15 AM 78.4 °F - 72.9 °F 83% 30.03 in 10.0 mi Calm Calm - N/A   Clear
12:35 AM 77.2 °F - 73.0 °F 87% 30.04 in 10.0 mi West 3.5 mph - N/A   Clear
12:55 AM 76.8 °F - 73.0 °F 88% 30.04 in 10.0 mi WSW 3.5 mph - N/A   Clear
1:15 AM 76.5 °F - 73.2 °F 90% 30.04 in 10.0 mi Calm Calm - N/A   Clear
1:35 AM 76.1 °F - 73.2 °F 91% 30.05 in 10.0 mi Calm Calm - N/A   Clear
1:55 AM 75.6 °F - 73.0 °F 92% 30.06 in 10.0 mi West 3.5 mph - N/A   Clear
2:15 AM 75.0 °F - 73.2 °F 94% 30.05 in 10.0 mi Calm Calm - N/A   Scattered Clouds
2:35 AM 74.5 °F - 73.2 °F 96% 30.05 in 10.0 mi Calm Calm - N/A   Clear
2:55 AM 74.1 °F - 73.0 °F 96% 30.04 in 10.0 mi Calm Calm - N/A   Clear
3:15 AM 74.1 °F - 73.2 °F 97% 30.04 in 10.0 mi Calm Calm - N/A   Clear
3:35 AM 73.8 °F - 72.9 °F 97% 30.04 in 10.0 mi SW 3.5 mph - N/A   Clear
3:55 AM 73.8 °F - 72.7 °F 96% 30.04 in 10.0 mi SW 3.5 mph - N/A   Clear
4:15 AM 73.6 °F - 72.7 °F 97% 30.03 in 10.0 mi Calm Calm - N/A   Clear
4:35 AM 73.4 °F - 72.3 °F 96% 30.04 in 10.0 mi Calm Calm - N/A   Clear
4:55 AM 72.9 °F - 72.1 °F 98% 30.04 in 10.0 mi Calm Calm - N/A   Clear
5:15 AM 72.7 °F - 72.1 °F 98% 30.04 in 10.0 mi Calm Calm - N/A   Scattered Clouds
5:35 AM 73.8 °F - 73.0 °F 98% 30.05 in 10.0 mi Calm Calm - N/A   Mostly Cloudy
5:55 AM 73.8 °F - 73.0 °F 98% 30.05 in 10.0 mi Calm Calm - N/A   Overcast
6:15 AM 74.1 °F - 73.2 °F 97% 30.06 in 10.0 mi Calm Calm - N/A   Overcast
6:35 AM 74.3 °F - 73.6 °F 98% 30.06 in 10.0 mi Calm Calm - N/A   Overcast
6:55 AM 74.5 °F - 73.8 °F 98% 30.06 in 10.0 mi Calm Calm - N/A   Overcast
7:15 AM 74.8 °F - 73.9 °F 97% 30.07 in 10.0 mi Calm Calm - N/A   Overcast
7:35 AM 75.0 °F - 73.8 °F 96% 30.08 in 10.0 mi West 3.5 mph - N/A   Overcast
7:55 AM 75.4 °F - 73.8 °F 95% 30.09 in 10.0 mi Calm Calm - N/A   Overcast
8:15 AM 75.6 °F - 73.9 °F 95% 30.09 in 10.0 mi Calm Calm - N/A   Overcast
8:35 AM 75.6 °F - 73.9 °F 95% 30.09 in 10.0 mi Calm Calm - N/A   Overcast
8:55 AM 76.3 °F - 73.9 °F 92% 30.10 in 10.0 mi Calm Calm - N/A   Overcast
9:15 AM 77.2 °F - 73.6 °F 89% 30.10 in 10.0 mi West 3.5 mph - N/A   Overcast
9:35 AM 77.9 °F - 73.4 °F 86% 30.09 in 10.0 mi WNW 3.5 mph - N/A   Overcast
9:55 AM 79.0 °F - 73.6 °F 83% 30.09 in 10.0 mi Calm Calm - N/A   Overcast
10:15 AM 81.1 °F 86.8 °F 74.3 °F 80% 30.09 in 10.0 mi South 3.5 mph - N/A   Overcast
10:35 AM 81.5 °F 87.2 °F 74.1 °F 78% 30.10 in 10.0 mi SSE 4.6 mph - N/A   Overcast
10:55 AM 82.2 °F 88.3 °F 74.1 °F 76% 30.10 in 10.0 mi Calm Calm - N/A   Overcast
11:15 AM 82.2 °F 88.3 °F 73.9 °F 76% 30.10 in 10.0 mi South 4.6 mph - N/A   Mostly Cloudy
11:35 AM 82.8 °F 89.0 °F 73.6 °F 74% 30.10 in 10.0 mi SSE 5.8 mph - N/A   Mostly Cloudy
12:15 PM 83.5 °F 90.0 °F 73.8 °F 72% 30.10 in 10.0 mi SSE 3.5 mph - N/A   Mostly Cloudy
12:55 PM 84.9 °F 91.8 °F 73.2 °F 68% 30.10 in 10.0 mi Calm Calm - N/A   Mostly Cloudy
1:15 PM 85.5 °F 92.6 °F 73.6 °F 67% 30.10 in 10.0 mi SW 3.5 mph - N/A   Mostly Cloudy
1:35 PM 85.5 °F 93.0 °F 73.9 °F 68% 30.09 in 10.0 mi West 6.9 mph - N/A   Mostly Cloudy
1:55 PM 88.5 °F 97.8 °F 74.5 °F 63% 30.08 in 10.0 mi SW 5.8 mph - N/A   Mostly Cloudy
2:15 PM 88.0 °F 95.6 °F 73.0 °F 61% 30.08 in 10.0 mi South 6.9 mph - N/A   Mostly Cloudy
2:35 PM 88.3 °F 95.9 °F 72.7 °F 60% 30.07 in 10.0 mi South 3.5 mph - N/A   Mostly Cloudy
2:55 PM 88.7 °F 95.7 °F 72.1 °F 58% 30.06 in 10.0 mi SE 6.9 mph - N/A   Mostly Cloudy
3:15 PM 88.7 °F 95.7 °F 72.1 °F 58% 30.04 in 10.0 mi Calm Calm - N/A   Mostly Cloudy
3:35 PM 90.5 °F 99.2 °F 73.2 °F 57% 30.03 in 10.0 mi WSW 6.9 mph - N/A   Scattered Clouds
3:55 PM 90.5 °F 98.6 °F 72.7 °F 56% 30.02 in 10.0 mi South 8.1 mph - N/A   Mostly Cloudy
4:15 PM 90.3 °F 96.7 °F 70.9 °F 53% 30.01 in 10.0 mi SW 3.5 mph - N/A   Mostly Cloudy
4:35 PM 89.8 °F 95.1 °F 69.8 °F 52% 30.01 in 10.0 mi South 4.6 mph - N/A   Scattered Clouds
4:55 PM 91.0 °F 96.6 °F 69.8 °F 50% 30.01 in 10.0 mi WSW 5.8 mph - N/A   Clear
5:15 PM 91.4 °F 96.8 °F 70.0 °F 49% 30.00 in 10.0 mi South 4.6 mph - N/A   Scattered Clouds
5:35 PM 91.2 °F 97.0 °F 70.2 °F 50% 30.00 in 10.0 mi South 4.6 mph - N/A   Scattered Clouds
5:55 PM 91.2 °F 97.5 °F 70.5 °F 51% 30.01 in 10.0 mi SSE 3.5 mph - N/A   Mostly Cloudy
6:15 PM 83.1 °F 88.6 °F 72.5 °F 70% 30.03 in 10.0 mi SW 15.0 mph 26.5 mph N/A Thunderstorm Overcast
6:35 PM 79.5 °F - 73.9 °F 83% 30.04 in 10.0 mi SSW 10.4 mph 21.9 mph N/A Rain Light Rain
6:55 PM 79.0 °F - 73.4 °F 83% 30.04 in 10.0 mi Calm Calm - N/A Rain Light Rain
7:15 PM 78.4 °F - 74.3 °F 87% 30.04 in 10.0 mi SE 4.6 mph - N/A   Mostly Cloudy
7:35 PM 77.4 °F - 74.7 °F 91% 30.06 in 10.0 mi SE 3.5 mph - N/A   Overcast
7:55 PM 77.9 °F - 74.7 °F 90% 30.05 in 10.0 mi WNW 4.6 mph - N/A   Mostly Cloudy
8:15 PM 77.9 °F - 74.7 °F 90% 30.07 in 10.0 mi SE 4.6 mph - N/A   Scattered Clouds
8:35 PM 78.1 °F - 74.8 °F 90% 30.08 in 10.0 mi Calm Calm - N/A   Mostly Cloudy
8:55 PM 76.8 °F - 74.5 °F 92% 30.10 in 10.0 mi ENE 5.8 mph - N/A Rain Light Rain
9:15 PM 76.3 °F - 73.6 °F 91% 30.10 in 10.0 mi NNE 9.2 mph - N/A Rain Light Rain
9:35 PM 74.8 °F - 73.0 °F 94% 30.11 in 10.0 mi SE 5.8 mph - N/A Rain , Thunderstorm Light Thunderstorms and Rain
9:55 PM 75.2 °F - 71.6 °F 89% 30.10 in 10.0 mi SE 8.1 mph - N/A Thunderstorm Mostly Cloudy
10:15 PM 73.4 °F - 71.6 °F 94% 30.11 in 7.0 mi SE 12.7 mph - N/A Rain Light Rain
10:35 PM 72.7 °F - 69.8 °F 91% 30.11 in 10.0 mi SE 10.4 mph - N/A Thunderstorm Mostly Cloudy
10:55 PM 72.7 °F - 69.6 °F 90% 30.10 in 10.0 mi SSW 4.6 mph - N/A Thunderstorm Mostly Cloudy
11:15 PM 73.4 °F - 68.9 °F 86% 30.09 in 10.0 mi SE 5.8 mph - N/A Thunderstorm Thunderstorm
11:35 PM 73.4 °F - 69.4 °F 87% 30.11 in 10.0 mi West 5.8 mph - N/A Thunderstorm Thunderstorm
11:55 PM 72.5 °F - 69.4 °F 90% 30.11 in 10.0 mi WSW 6.9 mph - N/A Rain , Thunderstorm Light Thunderstorms and Rain